This is the latest recevied weather packets stored in our database for station/object KJ4AJP. If no packets are shown the sender has not sent any weather packets the latest 10 day(s).
| Time | Temp. | Humidity | Pressure | Rain* | Wind** | Luminosity | Snow |
|---|---|---|---|---|---|---|---|
| 1778042418 | 12.22° C | 97% | 1008.1 hPa | 1.78 mm | - | 0 W/m² | - |
| 1778042115 | 12.22° C | 97% | 1008.2 hPa | 3.56 mm | - | 0 W/m² | - |
| 1778041814 | 12.22° C | 96% | 1008 hPa | 4.83 mm | - | 0 W/m² | - |
| 1778041512 | 12.78° C | 96% | 1008.1 hPa | 14.99 mm | - | 0 W/m² | - |
| 1778041210 | 13.89° C | 96% | 1008.4 hPa | 16.76 mm | - | 0 W/m² | - |
| 1778040908 | 13.89° C | 96% | 1008.4 hPa | 16.76 mm | - | 0 W/m² | - |
| 1778040605 | 14.44° C | 96% | 1008 hPa | 14.99 mm | - | 0 W/m² | - |
| 1778040303 | 14.44° C | 96% | 1007.9 hPa | 13.72 mm | - | 0 W/m² | - |
| 1778039998 | 15° C | 96% | 1007.7 hPa | 10.67 mm | - | 0 W/m² | - |
| 1778039695 | 15.56° C | 95% | 1008.3 hPa | 4.83 mm | - | 0 W/m² | - |
| 1778039391 | 15.56° C | 95% | 1007.5 hPa | 1.78 mm | - | 0 W/m² | - |
| 1778039089 | 16.67° C | 94% | 1007.5 hPa | 1.27 mm | - | 0 W/m² | - |
| 1778038786 | 17.22° C | 95% | 1007.6 hPa | 3.05 mm | - | 0 W/m² | - |
| 1778038484 | 18.33° C | 95% | 1007.5 hPa | 7.87 mm | - | 0 W/m² | - |
| 1778038180 | 18.89° C | 96% | 1007.2 hPa | 28.7 mm | - | 0 W/m² | - |
| 1778037878 | 18.89° C | 95% | 1006.5 hPa | 24.64 mm | - | 0 W/m² | - |
| 1778037574 | 18.89° C | 95% | 1007.3 hPa | 3.05 mm | - | 0 W/m² | - |
| 1778037271 | 18.89° C | 94% | 1006.4 hPa | 1.78 mm | - | 0 W/m² | - |
| 1778036969 | 18.89° C | 95% | 1006.2 hPa | 0 mm | - | 0 W/m² | - |
| 1778036667 | 18.89° C | 96% | 1006.3 hPa | 0 mm | - | 0 W/m² | - |
| 1778036363 | 18.33° C | 96% | 1006.4 hPa | 0 mm | - | 0 W/m² | - |
| 1778036060 | 18.33° C | 96% | 1006 hPa | 0 mm | - | 0 W/m² | - |
| 1778035757 | 18.33° C | 97% | 1006.1 hPa | 0 mm | - | 0 W/m² | - |
| 1778035454 | 18.33° C | 97% | 1006.2 hPa | 0 mm | - | 0 W/m² | - |
| 1778035149 | 18.33° C | 97% | 1006 hPa | 0 mm | - | 0 W/m² | - |
* Rain latest hour (hover to see other rain measurements)
** Current wind speed in m/s (hover to see current wind gust speed)